| time (UTC) | temp C | wind direction | speed KPH | gust KPH | rain 1hr cm | rain 24hr cm | rain mn cm | humidity % | barometer mb |
| 20260507174005 | 19 | 308 | 3.2 | 9.7 | 0.00 | 0.00 | 0.00 | 58 | 1017.1 |
| 20260507173505 | 19 | 299 | 1.6 | 9.7 | 0.00 | 0.00 | 0.00 | 58 | 1016.8 |
| 20260507173005 | 19 | 290 | 1.6 | 8.0 | 0.00 | 0.00 | 0.00 | 57 | 1017.0 |
| 20260507172504 | 19 | 302 | 1.6 | 9.7 | 0.00 | 0.00 | 0.00 | 58 | 1017.1 |
| 20260507172004 | 19 | 309 | 1.6 | 9.7 | 0.00 | 0.00 | 0.00 | 57 | 1017.1 |
| 20260507171504 | 19 | 297 | 0.0 | 6.4 | 0.00 | 0.00 | 0.00 | 56 | 1016.8 |
| 20260507171004 | 19 | 270 | 0.0 | 4.8 | 0.00 | 0.00 | 0.00 | 55 | 1016.9 |
| 20260507170504 | 19 | 270 | 0.0 | 4.8 | 0.00 | 0.00 | 0.00 | 55 | 1016.9 |
| 20260507165504 | 19 | 273 | 1.6 | 6.4 | 0.00 | 0.00 | 0.00 | 54 | 1016.4 |
| 20260507165004 | 19 | 325 | 0.0 | 4.8 | 0.00 | 0.00 | 0.00 | 54 | 1016.6 |
| 20260507164004 | 20 | 60 | 3.2 | 8.0 | 0.00 | 0.00 | 0.00 | 54 | 1016.5 |
| 20260507163504 | 20 | 48 | 4.8 | 11.3 | 0.00 | 0.00 | 0.00 | 54 | 1016.5 |
| 20260507163005 | 20 | 37 | 4.8 | 11.3 | 0.00 | 0.00 | 0.00 | 54 | 1016.3 |
| 20260507162504 | 20 | 17 | 3.2 | 11.3 | 0.00 | 0.00 | 0.00 | 54 | 1016.2 |
| 20260507162004 | 20 | 22 | 4.8 | 20.9 | 0.00 | 0.00 | 0.00 | 54 | 1016.7 |
| 20260507161504 | 20 | 28 | 4.8 | 20.9 | 0.00 | 0.00 | 0.00 | 53 | 1016.6 |
| 20260507161004 | 21 | 18 | 3.2 | 14.5 | 0.00 | 0.00 | 0.00 | 50 | 1016.6 |
| 20260507160504 | 21 | 290 | 1.6 | 8.0 | 0.00 | 0.00 | 0.00 | 48 | 1016.7 |
| 20260507160005 | 21 | 313 | 3.2 | 14.5 | 0.00 | 0.00 | 0.00 | 47 | 1016.8 |
| 20260507155504 | 22 | 340 | 4.8 | 14.5 | 0.00 | 0.00 | 0.00 | 46 | 1016.9 |
| 20260507155004 | 22 | 348 | 3.2 | 12.9 | 0.00 | 0.00 | 0.00 | 44 | 1016.6 |
| 20260507154504 | 23 | 339 | 1.6 | 12.9 | 0.00 | 0.00 | 0.00 | 43 | 1016.5 |
| 20260507154004 | 23 | 311 | 1.6 | 6.4 | 0.00 | 0.00 | 0.00 | 40 | 1016.6 |
| 20260507153504 | 23 | 300 | 1.6 | 6.4 | 0.00 | 0.00 | 0.00 | 39 | 1016.7 |
| 20260507151506 | 23 | 353 | 1.6 | 9.7 | 0.00 | 0.00 | 0.00 | 43 | 1016.9 |
| 20260507150504 | 23 | 323 | 4.8 | 12.9 | 0.00 | 0.00 | 0.00 | 44 | 1017.0 |
| 20260507150005 | 23 | 337 | 4.8 | 12.9 | 0.00 | 0.00 | 0.00 | 44 | 1017.1 |
| 20260507145503 | 23 | 353 | 4.8 | 12.9 | 0.00 | 0.00 | 0.00 | 44 | 1016.9 |
| 20260507145004 | 23 | 354 | 4.8 | 11.3 | 0.00 | 0.00 | 0.00 | 44 | 1017.0 |
| 20260507144505 | 23 | 18 | 4.8 | 9.7 | 0.00 | 0.00 | 0.00 | 45 | 1016.8 |
| 20260507144004 | 23 | 36 | 3.2 | 14.5 | 0.00 | 0.00 | 0.00 | 44 | 1016.7 |
| 20260507143504 | 23 | 42 | 4.8 | 14.5 | 0.00 | 0.00 | 0.00 | 44 | 1016.9 |
| 20260507143005 | 23 | 41 | 4.8 | 12.9 | 0.00 | 0.00 | 0.00 | 43 | 1016.8 |
| 20260507142504 | 24 | 31 | 4.8 | 12.9 | 0.00 | 0.00 | 0.00 | 43 | 1016.8 |
| 20260507142004 | 24 | 1 | 4.8 | 12.9 | 0.00 | 0.00 | 0.00 | 43 | 1016.7 |
| 20260507141504 | 25 | 347 | 6.4 | 14.5 | 0.00 | 0.00 | 0.00 | 43 | 1016.7 |
| 20260507140504 | 25 | 6 | 4.8 | 14.5 | 0.00 | 0.00 | 0.00 | 39 | 1016.4 |
| 20260507140006 | 25 | 356 | 3.2 | 14.5 | 0.00 | 0.00 | 0.00 | 41 | 1016.4 |
| 20260507135504 | 25 | 15 | 4.8 | 14.5 | 0.00 | 0.00 | 0.00 | 42 | 1016.4 |
| 20260507135005 | 25 | 353 | 8.0 | 14.5 | 0.00 | 0.00 | 0.00 | 40 | 1016.3 |
| 20260507134004 | 25 | 7 | 6.4 | 14.5 | 0.00 | 0.00 | 0.00 | 40 | 1016.2 |
| 20260507133503 | 25 | 22 | 6.4 | 19.3 | 0.00 | 0.00 | 0.00 | 39 | 1016.2 |
| 20260507133004 | 25 | 36 | 6.4 | 19.3 | 0.00 | 0.00 | 0.00 | 38 | 1016.2 |
| 20260507132503 | 25 | 37 | 4.8 | 11.3 | 0.00 | 0.00 | 0.00 | 38 | 1016.1 |
| 20260507132003 | 25 | 355 | 4.8 | 11.3 | 0.00 | 0.00 | 0.00 | 40 | 1016.2 |
| 20260507131504 | 25 | 345 | 3.2 | 14.5 | 0.00 | 0.00 | 0.00 | 41 | 1016.1 |
| 20260507131003 | 24 | 33 | 6.4 | 17.7 | 0.00 | 0.00 | 0.00 | 41 | 1016.0 |
| 20260507130503 | 24 | 39 | 8.0 | 17.7 | 0.00 | 0.00 | 0.00 | 39 | 1016.1 |
| 20260507130005 | 24 | 15 | 6.4 | 17.7 | 0.00 | 0.00 | 0.00 | 39 | 1016.3 |
| 20260507125503 | 24 | 16 | 8.0 | 20.9 | 0.00 | 0.00 | 0.00 | 39 | 1016.2 |
| 20260507125004 | 25 | 50 | 8.0 | 20.9 | 0.00 | 0.00 | 0.00 | 40 | 1016.3 |
| 20260507124504 | 25 | 55 | 9.7 | 20.9 | 0.00 | 0.00 | 0.00 | 40 | 1016.5 |
| 20260507124003 | 25 | 65 | 11.3 | 20.9 | 0.00 | 0.00 | 0.00 | 39 | 1016.7 |
| 20260507123004 | 25 | 42 | 8.0 | 20.9 | 0.00 | 0.00 | 0.00 | 40 | 1016.8 |
| 20260507122504 | 25 | 37 | 8.0 | 19.3 | 0.00 | 0.00 | 0.00 | 42 | 1017.0 |
| 20260507121504 | 25 | 35 | 9.7 | 22.5 | 0.00 | 0.00 | 0.00 | 41 | 1017.1 |
| 20260507121004 | 25 | 40 | 9.7 | 19.3 | 0.00 | 0.00 | 0.00 | 39 | 1017.1 |
| 20260507120503 | 25 | 25 | 11.3 | 20.9 | 0.00 | 0.00 | 0.00 | 38 | 1017.1 |
| 20260507120005 | 25 | 29 | 9.7 | 20.9 | 0.00 | 0.00 | 0.00 | 37 | 1017.0 |
| 20260507115503 | 26 | 33 | 9.7 | 22.5 | 0.00 | 0.00 | 0.00 | 36 | 1017.0 |
| 20260507115004 | 26 | 24 | 11.3 | 22.5 | 0.00 | 0.00 | 0.00 | 35 | 1016.9 |
| 20260507114504 | 26 | 24 | 9.7 | 20.9 | 0.00 | 0.00 | 0.00 | 35 | 1016.9 |
| 20260507114003 | 26 | 20 | 11.3 | 24.1 | 0.00 | 0.00 | 0.00 | 36 | 1017.0 |
| 20260507113504 | 26 | 25 | 11.3 | 24.1 | 0.00 | 0.00 | 0.00 | 35 | 1017.0 |
| 20260507113005 | 26 | 44 | 11.3 | 20.9 | 0.00 | 0.00 | 0.00 | 36 | 1016.9 |
| 20260507112504 | 26 | 46 | 9.7 | 20.9 | 0.00 | 0.00 | 0.00 | 37 | 1016.9 |
| 20260507112004 | 26 | 40 | 8.0 | 19.3 | 0.00 | 0.00 | 0.00 | 36 | 1017.1 |
| 20260507111506 | 26 | 46 | 8.0 | 20.9 | 0.00 | 0.00 | 0.00 | 37 | 1017.2 |
| 20260507111004 | 26 | 31 | 9.7 | 22.5 | 0.00 | 0.00 | 0.00 | 37 | 1017.2 |
| 20260507110504 | 26 | 15 | 11.3 | 22.5 | 0.00 | 0.00 | 0.00 | 37 | 1017.1 |
| 20260507110005 | 26 | 30 | 9.7 | 22.5 | 0.00 | 0.00 | 0.00 | 35 | 1016.9 |
| 20260507105004 | 25 | 53 | 11.3 | 20.9 | 0.00 | 0.00 | 0.00 | 37 | 1017.0 |
| 20260507104504 | 25 | 54 | 11.3 | 20.9 | 0.00 | 0.00 | 0.00 | 36 | 1017.1 |
| 20260507104004 | 25 | 46 | 11.3 | 20.9 | 0.00 | 0.00 | 0.00 | 37 | 1017.2 |
| 20260507103504 | 25 | 48 | 11.3 | 20.9 | 0.00 | 0.00 | 0.00 | 35 | 1017.0 |
| 20260507103005 | 26 | 50 | 11.3 | 19.3 | 0.00 | 0.00 | 0.00 | 36 | 1016.9 |
| 20260507102504 | 25 | 45 | 11.3 | 20.9 | 0.00 | 0.00 | 0.00 | 40 | 1016.9 |
| 20260507102006 | 25 | 42 | 11.3 | 20.9 | 0.00 | 0.00 | 0.00 | 38 | 1017.0 |
| 20260507101507 | 25 | 39 | 9.7 | 19.3 | 0.00 | 0.00 | 0.00 | 40 | 1017.0 |
| 20260507100005 | 25 | 47 | 8.0 | 16.1 | 0.00 | 0.00 | 0.00 | 43 | 1017.0 |
| 20260507095504 | 25 | 31 | 8.0 | 16.1 | 0.00 | 0.00 | 0.00 | 41 | 1016.9 |
| 20260507095004 | 25 | 30 | 8.0 | 14.5 | 0.00 | 0.00 | 0.00 | 41 | 1017.1 |
| 20260507094504 | 25 | 43 | 8.0 | 14.5 | 0.00 | 0.00 | 0.00 | 39 | 1017.0 |
| 20260507094003 | 25 | 56 | 8.0 | 14.5 | 0.00 | 0.00 | 0.00 | 40 | 1016.8 |
| 20260507093504 | 25 | 66 | 8.0 | 14.5 | 0.00 | 0.00 | 0.00 | 41 | 1016.9 |
| 20260507093005 | 25 | 60 | 8.0 | 12.9 | 0.00 | 0.00 | 0.00 | 42 | 1016.9 |
| 20260507092503 | 25 | 43 | 6.4 | 17.7 | 0.00 | 0.00 | 0.00 | 43 | 1017.2 |
| 20260507092003 | 25 | 15 | 6.4 | 17.7 | 0.00 | 0.00 | 0.00 | 44 | 1016.8 |
| 20260507091504 | 24 | 12 | 4.8 | 12.9 | 0.00 | 0.00 | 0.00 | 43 | 1017.3 |
| 20260507091004 | 23 | 11 | 6.4 | 14.5 | 0.00 | 0.00 | 0.00 | 44 | 1017.1 |
| 20260507090504 | 23 | 4 | 6.4 | 14.5 | 0.00 | 0.00 | 0.00 | 45 | 1017.1 |
| 20260507090006 | 23 | 9 | 6.4 | 14.5 | 0.00 | 0.00 | 0.00 | 46 | 1017.1 |
| 20260507085504 | 23 | 21 | 6.4 | 12.9 | 0.00 | 0.00 | 0.00 | 45 | 1017.0 |
| 20260507085003 | 23 | 31 | 6.4 | 12.9 | 0.00 | 0.00 | 0.00 | 42 | 1017.0 |
| 20260507084004 | 23 | 32 | 4.8 | 12.9 | 0.00 | 0.00 | 0.00 | 43 | 1017.3 |
| 20260507083005 | 23 | 36 | 8.0 | 17.7 | 0.00 | 0.00 | 0.00 | 42 | 1017.3 |
| 20260507082505 | 23 | 63 | 6.4 | 16.1 | 0.00 | 0.00 | 0.00 | 39 | 1017.2 |
| 20260507082004 | 23 | 59 | 6.4 | 16.1 | 0.00 | 0.00 | 0.00 | 37 | 1016.9 |
| 20260507081004 | 23 | 64 | 6.4 | 11.3 | 0.00 | 0.00 | 0.00 | 36 | 1017.2 |
| 20260507080504 | 23 | 31 | 4.8 | 11.3 | 0.00 | 0.00 | 0.00 | 35 | 1017.1 |
| 20260507080005 | 23 | 32 | 4.8 | 11.3 | 0.00 | 0.00 | 0.00 | 36 | 1017.2 |
| 20260507075503 | 23 | 42 | 6.4 | 14.5 | 0.00 | 0.00 | 0.00 | 36 | 1017.1 |
| 20260507074504 | 23 | 24 | 6.4 | 14.5 | 0.00 | 0.00 | 0.00 | 40 | 1017.1 |
| 20260507074004 | 23 | 25 | 4.8 | 12.9 | 0.00 | 0.00 | 0.00 | 42 | 1017.1 |
| 20260507073504 | 23 | 32 | 6.4 | 12.9 | 0.00 | 0.00 | 0.00 | 43 | 1016.9 |
| 20260507073004 | 23 | 22 | 6.4 | 12.9 | 0.00 | 0.00 | 0.00 | 44 | 1016.8 |
| 20260507072503 | 23 | 47 | 4.8 | 11.3 | 0.00 | 0.00 | 0.00 | 44 | 1016.7 |
| 20260507072004 | 23 | 86 | 4.8 | 11.3 | 0.00 | 0.00 | 0.00 | 42 | 1017.0 |
| 20260507071505 | 23 | 92 | 4.8 | 11.3 | 0.00 | 0.00 | 0.00 | 42 | 1016.8 |
| 20260507071004 | 23 | 93 | 4.8 | 9.7 | 0.00 | 0.00 | 0.00 | 41 | 1017.0 |
| 20260507070503 | 23 | 111 | 3.2 | 9.7 | 0.00 | 0.00 | 0.00 | 40 | 1016.8 |
| 20260507070009 | 23 | 126 | 3.2 | 9.7 | 0.00 | 0.00 | 0.00 | 41 | 1016.8 |
| 20260507065503 | 23 | 118 | 3.2 | 8.0 | 0.00 | 0.00 | 0.00 | 39 | 1017.1 |
| 20260507065004 | 22 | 96 | 3.2 | 9.7 | 0.00 | 0.00 | 0.00 | 38 | 1017.2 |
| 20260507064004 | 22 | 195 | 1.6 | 4.8 | 0.00 | 0.00 | 0.00 | 40 | 1017.1 |
| 20260507063504 | 22 | 209 | 1.6 | 6.4 | 0.00 | 0.00 | 0.00 | 42 | 1017.1 |
| 20260507062504 | 21 | 213 | 1.6 | 4.8 | 0.00 | 0.00 | 0.00 | 44 | 1017.1 |
| 20260507062004 | 20 | 190 | 1.6 | 4.8 | 0.00 | 0.00 | 0.00 | 44 | 1017.3 |
| 20260507061504 | 20 | 181 | 0.0 | 4.8 | 0.00 | 0.00 | 0.00 | 46 | 1017.1 |
| 20260507061004 | 20 | 191 | 0.0 | 4.8 | 0.00 | 0.00 | 0.00 | 48 | 1017.1 |
| 20260507060504 | 20 | 190 | 1.6 | 4.8 | 0.00 | 0.00 | 0.00 | 48 | 1017.1 |
| 20260507060004 | 19 | 181 | 0.0 | 6.4 | 0.00 | 0.00 | 0.00 | 49 | 1017.1 |
| 20260507055503 | 19 | 181 | 1.6 | 6.4 | 0.00 | 0.00 | 0.00 | 50 | 1017.2 |
| 20260507055003 | 19 | 189 | 1.6 | 6.4 | 0.00 | 0.00 | 0.00 | 52 | 1017.1 |
| 20260507054504 | 18 | 217 | 1.6 | 6.4 | 0.00 | 0.00 | 0.00 | 53 | 1017.0 |
| 20260507054004 | 18 | 289 | 1.6 | 6.4 | 0.00 | 0.00 | 0.00 | 55 | 1017.0 |
| 20260507053503 | 18 | 353 | 0.0 | 4.8 | 0.00 | 0.00 | 0.00 | 56 | 1017.1 |
| 20260507052504 | 17 | 94 | 0.0 | 3.2 | 0.00 | 0.00 | 0.00 | 59 | 1016.9 |
| 20260507052004 | 17 | 78 | 0.0 | 3.2 | 0.00 | 0.00 | 0.00 | 62 | 1017.0 |
| 20260507051504 | 16 | 114 | 0.0 | 3.2 | 0.00 | 0.00 | 0.00 | 62 | 1016.8 |
| 20260507051004 | 16 | 170 | 0.0 | 3.2 | 0.00 | 0.00 | 0.00 | 64 | 1016.9 |
| 20260507050504 | 15 | 202 | 0.0 | 6.4 | 0.00 | 0.00 | 0.00 | 64 | 1017.0 |
| 20260507050005 | 15 | 192 | 1.6 | 8.0 | 0.00 | 0.00 | 0.00 | 64 | 1017.0 |
| 20260507045504 | 15 | 185 | 4.8 | 9.7 | 0.00 | 0.00 | 0.00 | 65 | 1017.0 |
| 20260507044505 | 14 | 249 | 3.2 | 8.0 | 0.00 | 0.00 | 0.00 | 67 | 1016.7 |
| 20260507044004 | 14 | 236 | 1.6 | 6.4 | 0.00 | 0.00 | 0.00 | 69 | 1016.6 |
| 20260507043504 | 13 | 246 | 0.0 | 4.8 | 0.00 | 0.00 | 0.00 | 71 | 1016.7 |
| 20260507043004 | 13 | 314 | 0.0 | 3.2 | 0.00 | 0.00 | 0.00 | 72 | 1016.7 |
| 20260507042504 | 13 | 314 | 0.0 | 3.2 | 0.00 | 0.00 | 0.00 | 73 | 1016.7 |
| 20260507041505 | 12 | 191 | 0.0 | 6.4 | 0.00 | 0.00 | 0.00 | 73 | 1016.7 |
| 20260507040503 | 12 | 243 | 1.6 | 6.4 | 0.00 | 0.00 | 0.00 | 74 | 1016.7 |
| 20260507040004 | 12 | 225 | 3.2 | 8.0 | 0.00 | 0.00 | 0.00 | 74 | 1017.0 |
| 20260507035503 | 11 | 227 | 3.2 | 8.0 | 0.00 | 0.00 | 0.00 | 75 | 1016.6 |
| 20260507035004 | 11 | 227 | 3.2 | 6.4 | 0.00 | 0.00 | 0.00 | 75 | 1016.9 |
| 20260507034505 | 11 | 225 | 1.6 | 6.4 | 0.00 | 0.00 | 0.00 | 76 | 1016.8 |
| 20260507033503 | 11 | 225 | 0.0 | 4.8 | 0.00 | 0.00 | 0.00 | 76 | 1016.4 |
| 20260507033004 | 11 | 200 | 0.0 | 4.8 | 0.00 | 0.00 | 0.00 | 76 | 1016.7 |
| 20260507032503 | 11 | 202 | 0.0 | 4.8 | 0.00 | 0.00 | 0.00 | 76 | 1016.5 |
| 20260507031505 | 11 | 222 | 0.0 | 4.8 | 0.00 | 0.00 | 0.00 | 76 | 1016.3 |
| 20260507031004 | 10 | 224 | 0.0 | 4.8 | 0.00 | 0.00 | 0.00 | 75 | 1016.3 |
| 20260507030504 | 10 | 276 | 0.0 | 1.6 | 0.00 | 0.00 | 0.00 | 75 | 1016.2 |
| 20260507030004 | 10 | 0 | 0.0 | 0.0 | 0.00 | 0.00 | 0.00 | 74 | 1016.2 |
| 20260507025504 | 11 | 0 | 0.0 | 0.0 | 0.00 | 0.00 | 0.00 | 74 | 1016.2 |
| 20260507025004 | 11 | 324 | 0.0 | 3.2 | 0.00 | 0.00 | 0.00 | 73 | 1016.2 |
| 20260507024506 | 11 | 321 | 0.0 | 3.2 | 0.00 | 0.00 | 0.00 | 73 | 1016.1 |
| 20260507023505 | 11 | 314 | 0.0 | 4.8 | 0.00 | 0.00 | 0.00 | 71 | 1016.3 |
| 20260507023004 | 11 | 349 | 0.0 | 3.2 | 0.00 | 0.00 | 0.00 | 70 | 1016.3 |
| 20260507022503 | 11 | 23 | 0.0 | 1.6 | 0.00 | 0.00 | 0.00 | 70 | 1016.1 |
| 20260507022003 | 11 | 83 | 0.0 | 4.8 | 0.00 | 0.00 | 0.00 | 70 | 1016.2 |
| 20260507021505 | 11 | 90 | 0.0 | 4.8 | 0.00 | 0.00 | 0.00 | 69 | 1016.3 |
| 20260507021004 | 12 | 90 | 0.0 | 3.2 | 0.00 | 0.00 | 0.00 | 69 | 1016.1 |
| 20260507020503 | 12 | 99 | 0.0 | 3.2 | 0.00 | 0.00 | 0.00 | 69 | 1015.8 |
| 20260507020004 | 12 | 166 | 0.0 | 3.2 | 0.00 | 0.00 | 0.00 | 69 | 1015.9 |
| 20260507015504 | 12 | 186 | 0.0 | 4.8 | 0.00 | 0.00 | 0.00 | 69 | 1015.9 |
| 20260507015004 | 12 | 203 | 0.0 | 4.8 | 0.00 | 0.00 | 0.00 | 69 | 1015.8 |
| 20260507014504 | 12 | 222 | 1.6 | 6.4 | 0.00 | 0.00 | 0.00 | 69 | 1015.8 |
| 20260507014004 | 12 | 225 | 3.2 | 8.0 | 0.00 | 0.00 | 0.00 | 70 | 1015.9 |
| 20260507013503 | 12 | 225 | 4.8 | 8.0 | 0.00 | 0.00 | 0.00 | 70 | 1015.7 |
| 20260507012504 | 12 | 235 | 4.8 | 11.3 | 0.00 | 0.00 | 0.00 | 71 | 1015.6 |
| 20260507011505 | 12 | 255 | 4.8 | 9.7 | 0.00 | 0.00 | 0.00 | 73 | 1015.9 |
| 20260507011004 | 12 | 264 | 3.2 | 6.4 | 0.00 | 0.00 | 0.00 | 74 | 1015.7 |
| 20260507010504 | 12 | 235 | 4.8 | 8.0 | 0.00 | 0.00 | 0.00 | 74 | 1015.5 |
| 20260507010004 | 12 | 223 | 6.4 | 11.3 | 0.00 | 0.00 | 0.00 | 76 | 1015.6 |
| 20260507005503 | 12 | 225 | 6.4 | 11.3 | 0.00 | 0.00 | 0.00 | 77 | 1015.6 |
| 20260507005004 | 11 | 218 | 3.2 | 8.0 | 0.00 | 0.00 | 0.00 | 78 | 1015.5 |
| 20260507004504 | 11 | 204 | 0.0 | 6.4 | 0.00 | 0.00 | 0.00 | 77 | 1015.6 |
| 20260507004004 | 11 | 0 | 0.0 | 0.0 | 0.00 | 0.00 | 0.00 | 77 | 1015.5 |
| 20260507003504 | 11 | 0 | 0.0 | 0.0 | 0.00 | 0.00 | 0.00 | 77 | 1015.8 |
| 20260507003004 | 11 | 90 | 0.0 | 1.6 | 0.00 | 0.00 | 0.00 | 76 | 1015.6 |
| 20260507002504 | 11 | 90 | 0.0 | 3.2 | 0.00 | 0.00 | 0.00 | 76 | 1015.5 |
| 20260507002004 | 11 | 90 | 0.0 | 3.2 | 0.00 | 0.00 | 0.00 | 76 | 1015.4 |
| 20260507001504 | 11 | 0 | 0.0 | 0.0 | 0.00 | 0.00 | 0.00 | 75 | 1015.6 |
| 20260507001003 | 11 | 0 | 0.0 | 0.0 | 0.00 | 0.00 | 0.00 | 74 | 1015.5 |
| 20260507000503 | 12 | 0 | 0.0 | 0.0 | 0.00 | 0.00 | 0.00 | 74 | 1015.6 |
| 20260507000004 | 12 | 0 | 0.0 | 0.0 | 0.00 | 0.00 | 0.00 | 74 | 1015.6 |
| 20260506235504 | 12 | 0 | 0.0 | 0.0 | 0.00 | 0.00 | 0.00 | 74 | 1015.6 |
| 20260506235004 | 12 | 135 | 0.0 | 1.6 | 0.00 | 0.00 | 0.00 | 73 | 1015.7 |
| 20260506234003 | 12 | 93 | 1.6 | 4.8 | 0.00 | 0.00 | 0.00 | 73 | 1015.7 |
| 20260506233504 | 13 | 90 | 1.6 | 4.8 | 0.00 | 0.00 | 0.00 | 73 | 1015.9 |
| 20260506233005 | 13 | 84 | 0.0 | 3.2 | 0.00 | 0.00 | 0.00 | 73 | 1016.1 |
| 20260506231004 | 13 | 306 | 0.0 | 4.8 | 0.00 | 0.00 | 0.00 | 73 | 1016.2 |
| 20260506230504 | 13 | 270 | 1.6 | 6.4 | 0.00 | 0.00 | 0.00 | 73 | 1016.3 |
| 20260506225503 | 13 | 232 | 0.0 | 6.4 | 0.00 | 0.00 | 0.00 | 73 | 1016.3 |
| 20260506225003 | 13 | 225 | 0.0 | 6.4 | 0.00 | 0.00 | 0.00 | 73 | 1016.6 |
| 20260506224504 | 13 | 218 | 0.0 | 4.8 | 0.00 | 0.00 | 0.00 | 73 | 1016.5 |
| 20260506224004 | 13 | 212 | 0.0 | 4.8 | 0.00 | 0.00 | 0.00 | 73 | 1016.3 |
| 20260506223504 | 13 | 227 | 1.6 | 4.8 | 0.00 | 0.00 | 0.00 | 73 | 1016.5 |
| 20260506223005 | 13 | 229 | 1.6 | 6.4 | 0.00 | 0.00 | 0.00 | 74 | 1016.5 |
| 20260506222504 | 13 | 225 | 1.6 | 6.4 | 0.00 | 0.00 | 0.00 | 74 | 1016.2 |
| 20260506222004 | 13 | 225 | 1.6 | 6.4 | 0.00 | 0.00 | 0.00 | 74 | 1016.5 |
| 20260506221504 | 13 | 0 | 0.0 | 0.0 | 0.00 | 0.00 | 0.00 | 74 | 1016.2 |
| 20260506221004 | 13 | 0 | 0.0 | 0.0 | 0.00 | 0.00 | 0.00 | 74 | 1016.2 |
| 20260506220504 | 13 | 0 | 0.0 | 0.0 | 0.00 | 0.00 | 0.00 | 74 | 1016.2 |
| 20260506220005 | 13 | 0 | 0.0 | 0.0 | 0.00 | 0.00 | 0.00 | 74 | 1016.4 |
| 20260506215504 | 13 | 0 | 0.0 | 0.0 | 0.00 | 0.00 | 0.00 | 74 | 1016.5 |
| 20260506215005 | 13 | 0 | 0.0 | 0.0 | 0.00 | 0.00 | 0.00 | 74 | 1016.5 |
| 20260506214504 | 14 | 135 | 0.0 | 3.2 | 0.00 | 0.00 | 0.00 | 74 | 1016.2 |
| 20260506214004 | 14 | 98 | 1.6 | 4.8 | 0.00 | 0.00 | 0.00 | 74 | 1016.2 |
| 20260506213503 | 14 | 78 | 1.6 | 6.4 | 0.00 | 0.00 | 0.00 | 74 | 1016.3 |
| 20260506213004 | 14 | 67 | 1.6 | 6.4 | 0.00 | 0.00 | 0.00 | 74 | 1016.2 |
| 20260506212503 | 14 | 118 | 0.0 | 4.8 | 0.00 | 0.00 | 0.00 | 73 | 1016.4 |
| 20260506212004 | 14 | 135 | 0.0 | 4.8 | 0.00 | 0.00 | 0.00 | 73 | 1016.3 |
| 20260506211504 | 14 | 135 | 0.0 | 4.8 | 0.00 | 0.00 | 0.00 | 72 | 1016.3 |
| 20260506211004 | 15 | 114 | 1.6 | 6.4 | 0.00 | 0.00 | 0.00 | 71 | 1016.3 |
| 20260506210504 | 15 | 106 | 1.6 | 6.4 | 0.00 | 0.00 | 0.00 | 70 | 1016.5 |
| 20260506210005 | 15 | 90 | 0.0 | 3.2 | 0.00 | 0.00 | 0.00 | 69 | 1016.5 |
| 20260506205505 | 15 | 0 | 0.0 | 0.0 | 0.00 | 0.00 | 0.00 | 69 | 1016.5 |
| 20260506205004 | 15 | 150 | 0.0 | 1.6 | 0.00 | 0.00 | 0.00 | 68 | 1016.6 |
| 20260506204504 | 15 | 202 | 0.0 | 6.4 | 0.00 | 0.00 | 0.00 | 68 | 1016.4 |
| 20260506204004 | 15 | 195 | 1.6 | 6.4 | 0.00 | 0.00 | 0.00 | 68 | 1016.6 |
| 20260506203005 | 15 | 223 | 1.6 | 6.4 | 0.00 | 0.00 | 0.00 | 67 | 1016.7 |
| 20260506201504 | 16 | 181 | 0.0 | 4.8 | 0.00 | 0.00 | 0.00 | 65 | 1016.6 |
| 20260506201005 | 16 | 203 | 1.6 | 6.4 | 0.00 | 0.00 | 0.00 | 66 | 1016.6 |
| 20260506200504 | 16 | 218 | 1.6 | 6.4 | 0.00 | 0.00 | 0.00 | 66 | 1016.5 |
| 20260506200004 | 16 | 216 | 1.6 | 4.8 | 0.00 | 0.00 | 0.00 | 67 | 1016.3 |
| 20260506195504 | 16 | 216 | 1.6 | 4.8 | 0.00 | 0.00 | 0.00 | 66 | 1016.5 |
| 20260506195004 | 16 | 201 | 1.6 | 6.4 | 0.00 | 0.00 | 0.00 | 66 | 1016.4 |
| 20260506194504 | 16 | 199 | 1.6 | 6.4 | 0.00 | 0.00 | 0.00 | 66 | 1016.4 |
| 20260506193504 | 16 | 312 | 0.0 | 3.2 | 0.00 | 0.00 | 0.00 | 67 | 1016.4 |
| 20260506193004 | 16 | 310 | 0.0 | 6.4 | 0.00 | 0.00 | 0.00 | 67 | 1016.2 |
| 20260506192503 | 16 | 312 | 1.6 | 6.4 | 0.00 | 0.00 | 0.00 | 66 | 1016.2 |
| 20260506192003 | 16 | 311 | 3.2 | 6.4 | 0.00 | 0.00 | 0.00 | 66 | 1016.3 |
| 20260506191505 | 16 | 311 | 3.2 | 8.0 | 0.00 | 0.00 | 0.00 | 66 | 1016.0 |
| 20260506191003 | 17 | 314 | 1.6 | 8.0 | 0.00 | 0.00 | 0.00 | 65 | 1015.8 |
| 20260506190503 | 17 | 320 | 1.6 | 6.4 | 0.00 | 0.00 | 0.00 | 65 | 1015.7 |
| 20260506185504 | 17 | 331 | 3.2 | 8.0 | 0.00 | 0.00 | 0.00 | 65 | 1016.0 |
| 20260506185004 | 17 | 324 | 3.2 | 8.0 | 0.00 | 0.00 | 0.00 | 65 | 1015.6 |
| 20260506184004 | 17 | 303 | 4.8 | 9.7 | 0.00 | 0.00 | 0.00 | 65 | 1015.7 |
| 20260506183504 | 17 | 305 | 3.2 | 9.7 | 0.00 | 0.00 | 0.00 | 65 | 1015.7 |
| 20260506183005 | 17 | 309 | 1.6 | 6.4 | 0.00 | 0.00 | 0.00 | 65 | 1015.4 |
| 20260506182503 | 17 | 315 | 3.2 | 9.7 | 0.00 | 0.00 | 0.00 | 65 | 1015.4 |
| 20260506182003 | 17 | 311 | 3.2 | 9.7 | 0.00 | 0.00 | 0.00 | 65 | 1015.5 |
| 20260506181504 | 17 | 309 | 3.2 | 8.0 | 0.00 | 0.00 | 0.00 | 65 | 1015.4 |
| 20260506181003 | 17 | 316 | 3.2 | 8.0 | 0.00 | 0.00 | 0.00 | 65 | 1015.3 |
| 20260506180503 | 17 | 317 | 3.2 | 6.4 | 0.00 | 0.00 | 0.00 | 65 | 1015.2 |
| 20260506180005 | 17 | 320 | 3.2 | 6.4 | 0.00 | 0.00 | 0.00 | 65 | 1015.1 |
| 20260506175504 | 17 | 325 | 1.6 | 6.4 | 0.00 | 0.00 | 0.00 | 65 | 1015.2 |
| 20260506175004 | 17 | 317 | 1.6 | 6.4 | 0.00 | 0.00 | 0.00 | 65 | 1015.0 |
| 20260506174504 | 17 | 317 | 3.2 | 6.4 | 0.00 | 0.00 | 0.00 | 65 | 1015.0 |